This is the latest recevied weather packets stored in our database for station/object KC5TIL-3. If no packets are shown the sender has not sent any weather packets the latest 10 day(s).
| Time | Temp. | Humidity | Pressure | Rain* | Wind** | Luminosity | Snow |
|---|---|---|---|---|---|---|---|
| 1777929849 | 27.22° C | 21% | 1004.8 hPa | 0 mm | 4.92 m/s, 172° | - | - |
| 1777929551 | 27.22° C | 21% | 1004.8 hPa | 0 mm | 4.92 m/s, 141° | - | - |
| 1777929253 | 27.78° C | 21% | 1004.8 hPa | 0 mm | 4.47 m/s, 184° | - | - |
| 1777928951 | 28.33° C | 21% | 1004.8 hPa | 0 mm | 3.13 m/s, 203° | - | - |
| 1777928653 | 27.22° C | 22% | 1005.8 hPa | 0 mm | 4.02 m/s, 215° | - | - |
| 1777928049 | 27.22° C | 22% | 1005.8 hPa | 0 mm | 4.02 m/s, 199° | - | - |
| 1777927751 | 27.22° C | 21% | 1005.8 hPa | 0 mm | 4.92 m/s, 193° | - | - |
| 1777927453 | 27.22° C | 21% | 1005.8 hPa | 0 mm | 3.58 m/s, 180° | - | - |
| 1777927147 | 27.22° C | 21% | 1005.8 hPa | 0 mm | 4.02 m/s, 206° | - | - |
| 1777926848 | 27.22° C | 21% | 1005.8 hPa | 0 mm | 4.02 m/s, 232° | - | - |
| 1777926249 | 27.78° C | 22% | 1005.8 hPa | 0 mm | 4.02 m/s, 195° | - | - |
| 1777925946 | 27.22° C | 22% | 1006.8 hPa | 0 mm | 4.47 m/s, 208° | - | - |
| 1777925346 | 27.22° C | 21% | 1006.8 hPa | 0 mm | 4.02 m/s, 189° | - | - |
| 1777925048 | 27.22° C | 23% | 1006.8 hPa | 0 mm | 4.92 m/s, 102° | - | - |
| 1777924750 | 26.11° C | 23% | 1006.8 hPa | 0 mm | 4.92 m/s, 122° | - | - |
| 1777924448 | 26.67° C | 22% | 1006.8 hPa | 0 mm | 4.92 m/s, 240° | - | - |
| 1777924150 | 26.67° C | 23% | 1006.8 hPa | 0 mm | 2.68 m/s, 176° | - | - |
| 1777923852 | 26.67° C | 23% | 1006.8 hPa | 0 mm | 4.92 m/s, 228° | - | - |
| 1777923551 | 26.67° C | 23% | 1006.8 hPa | 0 mm | 4.92 m/s, 191° | - | - |
| 1777923252 | 26.11° C | 23% | 1006.8 hPa | 0 mm | 4.02 m/s, 208° | - | - |
| 1777922954 | 26.11° C | 23% | 1006.8 hPa | 0 mm | 3.13 m/s, 147° | - | - |
| 1777922354 | 26.11° C | 24% | 1007.8 hPa | 0 mm | 4.02 m/s, 199° | - | - |
| 1777922056 | 25.56° C | 24% | 1007.8 hPa | 0 mm | 5.81 m/s, 210° | - | - |
| 1777921754 | 26.11° C | 23% | 1007.8 hPa | 0 mm | 4.47 m/s, 195° | - | - |
| 1777921455 | 25.56° C | 23% | 1007.8 hPa | 0 mm | 4.47 m/s, 247° | - | - |
* Rain latest hour (hover to see other rain measurements)
** Current wind speed in m/s (hover to see current wind gust speed)